Location: Aetna Mine
(37.6183°N, 107.6045°W)
Time: 11:10:19
(UTC+00:00)

Cosmos 2208 Rocket - Pass Details

Date: 18 September 2020
Orbit: 755 x 805 km, 74.0° (Epoch: 20 October)

Event Time Altitude Azimuth Distance (km) Brightness Sun altitude
Rises 12:09:28 0° 191° (SSW) 3,246 7.0 -9.9°
Reaches altitude 10° 12:11:51 10° 190° (S) 2,315 6.3 -9.4°
Maximum altitude 12:17:05 74° 106° (ESE) 799 4.3 -8.4°
Drops below altitude 10° 12:22:17 10° 22° (NNE) 2,300 6.9 -7.4°
Sets 12:24:39 0° 21° (NNE) 3,224 7.6 -6.9°
